Regional Weather Roundup
Issued by NWS Portland, ME

Current Version | Previous Version | Text Only | Print | Product List | Glossary On
Versions: 1 2 3 4 5 6 7 8 9 10 11 12 13 14 15 16 17 18 19 20 21 22 23 24 25 26 27 28 29 30 31 32 33 34 35 36 37 38 39 40 41 42 43 44 45 46 47 48 49 50
000 ASUS41 KGYX 220005 RWRGYX WEATHER ROUNDUP FOR MAINE AND NEW HAMPSHIRE NATIONAL WEATHER SERVICE GRAY ME 800 PM EDT TUE OCT 21 2014 MEZ002-005-006-010-012-015-018-020-021-024-026-027-029-220100- MAINE CITY SKY/WX TMP DP RH WIND PRES REMARKS PORTLAND LGT RAIN 53 51 93 N13 30.01R 6HR MIN TEMP: 53; 6HR MAX TEMP: 55; 6HR PCP: 0.40; SANFORD CLOUDY 48 45 87 N13G20 30.00S BAR HARBOR CLOUDY 52 52 100 NE10G17 30.11R WISCASSET CLOUDY 52 51 97 CALM 30.05S 6HR MIN TEMP: 52; 6HR MAX TEMP: 55; 6HR PCP: 0.71; ROCKLAND CLOUDY 54 54 100 E13 30.04S FRYEBURG LGT RAIN 47 45 93 N6 30.06S 6HR MIN TEMP: 47; 6HR MAX TEMP: 48; 6HR PCP: 0.11; LEWISTONAUBURN CLOUDY 46 43 87 N14 30.05S AUGUSTA LGT RAIN 45 44 97 N14 30.08R 6HR MIN TEMP: 45; 6HR MAX TEMP: 50; 6HR PCP: 0.49; WATERVILLE CLOUDY 45 39 81 N15 30.07R BANGOR CLOUDY 47 45 93 NE13 30.13R 6HR MIN TEMP: 47; 6HR MAX TEMP: 54; 6HR PCP: 0.13; GREENVILLE N/A 41 39 93 E5 30.12R 6HR MIN TEMP: 41; 6HR MAX TEMP: 44; 6HR PCP: 0.05; MILLINOCKET CLOUDY 44 38 79 VRB3 30.19R 6HR MIN TEMP: 44; 6HR MAX TEMP: 48; 6HR PCP: TRACE; HOULTON MOCLDY 41 35 79 N5 30.19R 6HR MIN TEMP: 41; 6HR MAX TEMP: 47; 6HR PCP: TRACE; PRESQUE ISLE MOCLDY 41 30 65 N5 30.20S 6HR MIN TEMP: 41; 6HR MAX TEMP: 45; FRENCHVILLE CLOUDY 39 27 62 N7 30.20R 6HR MIN TEMP: 38; 6HR MAX TEMP: 45; CARIBOU CLOUDY 41 33 73 CALM 30.20S 6HR MIN TEMP: 41; 6HR MAX TEMP: 45; $$ NHZ002-005-008-009-011-012-014-220100- NEW HAMPSHIRE CITY SKY/WX TMP DP RH WIND PRES REMARKS PORTSMOUTH LGT RAIN 52 50 93 N12 29.97S ROCHESTER LGT RAIN 50 48 93 N12 29.99S 6HR MIN TEMP: 50; 6HR MAX TEMP: 54; 6HR PCP: 0.10; NASHUA CLOUDY 54 52 93 VRB5 29.98R MANCHESTER CLOUDY 54 48 80 N9 29.96R 6HR MIN TEMP: 54; 6HR MAX TEMP: 59; 6HR PCP: TRACE; CONCORD CLOUDY 50 47 89 NE7 29.99S 6HR MIN TEMP: 50; 6HR MAX TEMP: 54; LACONIA CLOUDY 48 45 87 NE13 30.00S PLYMOUTH CLOUDY 49 49 100 CALM 30.01S BERLIN RAIN 45 43 93 N8 30.07R 6HR MIN TEMP: 45; 6HR MAX TEMP: 47; 6HR PCP: 0.11; WHITEFIELD CLOUDY 48 43 82 E10 30.03S 6HR MIN TEMP: 47; 6HR MAX TEMP: 48; 6HR PCP: 0.05; JAFFREY CLOUDY 49 48 97 VRB3 29.98R FOG 6HR MIN TEMP: 49; 6HR MAX TEMP: 53; LEBANON CLOUDY 49 45 86 CALM 30.01R FOG 6HR MIN TEMP: 49; 6HR MAX TEMP: 50; 6HR PCP: 0.01; MT WASHINGTON LGT RAIN 32 32 100 E17 N/A VSB 0 6HR MIN TEMP: 31; 6HR MAX TEMP: 33; 6HR PCP: 0.13; $$ VTZ005-007-008-220100- VERMONT CITY SKY/WX TMP DP RH WIND PRES REMARKS ST JOHNSBURY N/A 47 46 97 MISG 30.03R MONTPELIER CLOUDY 45 45 100 N3 30.07R BURLINGTON CLOUDY 49 46 90 N6 30.04R $$ MAZ007-012-024-CTZ003-RIZ002-NYZ038-NYZ072-220100- SOUTHERN NEW ENGLAND AND NY CITY SKY/WX TMP DP RH WIND PRES REMARKS BOSTON CLOUDY 58 54 86 N8 29.94R WORCESTER CLOUDY 53 51 93 NE7 29.94R NANTUCKET MOCLDY 57 56 96 SE8 29.90S PROVIDENCE PTCLDY 56 55 97 N7 29.91R HARTFORD CLOUDY 55 48 77 N10 29.91R ALBANY CLOUDY 52 48 86 N9 29.96R NEW YORK CITY MOCLDY 62 53 72 NE7 29.87R $$ ANZ081-ANZ082-ANZ150-NHZ014-MEZ023>029-220100- COASTAL MARINE OBSERVATIONS STATION/POSITION TIME TEMP WIND PRES WAVE AIR SEA DIR/SP/G HT/PER (UTC) (F) (DEG/KT/KT) (MB) (FT/S) MOUNT DESERT ROC 0000 54 1017.8 MATINICUS ROCK 2300 100/ 22/ 23 1016.2R PORTLAND WX BUOY 2350 56 55 80/ 14/ 16 1015.1F 3/ 7 WELLS 2300 52 50 10/ 9/ 12 1014.4R ISLE OF SHOALS 2300 54 20/ 14/ 15 1013.9R JEFFREYS LEDGE 2321 56 N/A 4/ 6 CASHES LEDGE BUO 2350 57 56 100/ 17/ 21 1014.2F 5/ 6 $$ .............KEY.............. WCI - WIND CHILL TC - TEMPERATURE IN CELSIUS VSB - VISIBILITY IN MILES HX - HEAT INDEX FAIR- INDICATES FEW OR NO CLOUDS BELOW 12,000 FT, WITH NO SIGNIFICANT WEATHER AND/OR OBSTRUCTIONS TO VISIBILITY.

USA.gov is the U.S. government's official web portal to all federal, state and local government web resources and services.